Home   Weather   Viña del Mar   Past weeks

Flag for Chile Past Weather in Viña del Mar, Chile — Yesterday and Last 2 Weeks

Now
81 °F

Sunny.


Feels Like: 80 °F
Forecast: N/A
Wind: 18 mph from Southwest

Location: Pudahuel

Current Time: Dec 6, 2016 at 6:49:14 pm

Latest Report: Dec 6, 2016 at 6:00 pm


Visibility: 10 mi

Pressure: 29.92 "Hg

Humidity: 30%

Dew Point: 46 °F

Location of Viña del MarLocation

Past Weather in Viña del Mar — Graph

°F

Viña del Mar Temperature Yesterday

Maximum temperature yesterday: 81 °F (at 5:00 pm)
Minimum temperature yesterday: 55 °F (at 4:00 am)
Average temperature yesterday: 66 °F

High & Low Weather Summary for the Past Weeks

 TemperatureHumidityPressure
High93 °F (Nov 29, 4:00 pm)100% (Dec 3, 7:00 am)30.12 "Hg (Dec 3, 7:00 am)
Low50 °F (Nov 26, 7:00 am)16% (Nov 28, 4:00 pm)29.80 "Hg (Nov 29, 3:00 pm)
Average67 °F57%29.97 "Hg
* Reported Nov 21 6:00 pm — Dec 6 6:00 pm, Viña del Mar, Weather by CustomWeather, © 2016

Note: Actual official high and low records may vary slightly from our data, if they occured in-between our weather recording intervals... More about our weather records

Advertising

Viña del Mar Weather History for the Previous 24 Hours

Scroll right to see more
 ConditionsComfort  
Time TempWeatherWind HumidityBarometerVisibility
6:00 pm
Tue, Dec 6
81 °FSunny.18 mph30%29.92 "Hg10 mi
5:00 pm84 °FSunny.17 mph27%29.92 "Hg10 mi
4:00 pm84 °FPassing clouds.14 mph23%29.92 "HgN/A
3:00 pm84 °FPassing clouds.12 mph25%29.92 "HgN/A
2:00 pm82 °FPassing clouds.9 mph26%29.95 "HgN/A
1:00 pm79 °FPassing clouds.8 mph30%29.95 "HgN/A
12:00 pm75 °FSunny.5 mph34%29.95 "Hg10 mi
11:00 am70 °FPassing clouds.5 mph38%29.95 "HgN/A
10:00 am68 °FSunny.2 mph40%29.98 "Hg10 mi
9:00 am63 °FSunny.2 mph49%29.98 "Hg10 mi
8:00 am57 °FPassing clouds.3 mph59%29.95 "Hg5 mi
7:00 am54 °FPassing clouds.3 mph63%29.95 "HgN/A
6:00 am59 °FClear.6 mph48%29.95 "Hg10 mi
5:00 am57 °FClear.2 mph59%29.92 "Hg10 mi
4:00 am57 °FClear.1 mph59%29.92 "Hg10 mi
3:00 am61 °FClear.5 mph48%29.95 "Hg10 mi
2:00 am61 °FClear.5 mph55%29.95 "Hg10 mi
1:00 am63 °FClear.6 mph52%29.98 "Hg10 mi
12:00 am64 °FClear.8 mph52%29.98 "Hg10 mi
11:00 pm
Mon, Dec 5
66 °FPassing clouds.8 mph46%29.98 "HgN/A
10:00 pm70 °FClear.12 mph40%29.98 "Hg10 mi
9:00 pm73 °FPassing clouds.10 mph33%29.95 "HgN/A
8:00 pm77 °FSunny.13 mph28%29.95 "Hg10 mi
7:00 pm79 °FSunny.14 mph26%29.95 "Hg10 mi
6:00 pm81 °FPassing clouds.13 mph26%29.95 "HgN/A
Weather by CustomWeather, © 2016

See weather overviewHow to use our weather pages